User: anonymous   Login
Location: Holcomb Observatory
(44.4922°N, 73.1654°W)
Time: 05:53:39
(UTC-04:00)
Language:

Cosmos 1727 Rocket - Orbit

View from above orbital plane
View from above orbital plane
View from above satellite
View from above satellite

Ground track
Ground track

The orbit data is extracted from the following two-line orbital elements,

1 16511U 86008B   17114.94551581 -.00000007 +00000-0 -23005-4 0  9991
2 16511 082.9432 259.3909 0025375 072.7460 041.7522 13.75807207568694
Epoch (UTC): 24 April 2017 22:41:32
Eccentricity: 0.0025375
inclination: 82.9432°
perigee height: 960 km
apogee height: 997 km
right ascension of ascending node: 259.3909°
argument of perigee: 72.7460°
revolutions per day: 13.75807207
mean anomaly at epoch: 41.7522°
orbit number at epoch: 56869

The dashed part of the orbit path shows where the satellite is in the earth's shadow,  

DLR